Regional Weather Roundup
Issued by NWS San Diego, CA

Home | Current Version | Previous Version | Text Only | Print | Product List | Glossary On
Versions: 1 2 3 4 5 6 7 8 9 10 11 12 13 14 15 16 17 18 19 20 21 22 23 24 25 26 27 28 29 30 31 32 33 34 35 36 37 38 39 40 41 42 43 44 45 46 47 48 49 50
000
ASUS46 KSGX 072211
RWRSGX

SAN DIEGO HOURLY WEATHER ROUNDUP
NATIONAL WEATHER SERVICE SAN DIEGO CA
200 PM PST SUN FEB 07 2016

NOTE: "FAIR" INDICATES FEW OR NO CLOUDS BELOW 12,000 FEET WITH NO
SIGNIFICANT WEATHER AND/OR OBSTRUCTIONS TO VISIBILITY.

CAZ042-043-060-061-PZZ750-775-072300-

GREATER SAN DIEGO AREA

CITY           SKY/WX    TMP DP  RH WIND       PRES   REMARKS
LINDBERGH FLD  MOSUNNY   79  25  13 N10       30.07F
NATIONAL CITY    N/A     82  23  11 NW5       30.06F
CHULA VISTA      N/A     83  27  13 NW7       29.98F
IMPERIAL BEACH SUNNY     81  22  11 NW13      30.06F
BROWN FIELD    SUNNY     83  26  12 NW6       30.06F
MIRAMAR MCAS   MOSUNNY   83  26  12 NW8       30.07F
MONTGOMERY FLD SUNNY     81  24  12 NW7       30.07F

$$

NORTH SAN DIEGO COUNTY

CITY           SKY/WX    TMP DP  RH WIND       PRES   REMARKS
CAMP PENDLETON SUNNY     82  36  19 SW6       30.05F
OCEANSIDE AP   SUNNY     75  36  24 W8        30.06F
OCEANSIDE HBR    N/A     65  55  70 W6        30.09F
VISTA            N/A     80  42  25 W2        30.06F
CARLSBAD       SUNNY     74  37  26 W6        30.07F
DEL MAR          N/A     69  44  39 CALM      30.10F
FALLBROOK        N/A     83  24  11 NW3       30.05F
ESCONDIDO        N/A     84  30  14 N3        30.07F
SAN MARCOS       N/A     81  37  21 W8        30.05F
POWAY            N/A     86  21   9 E3        30.09F

$$

EAST SAN DIEGO COUNTY

CITY           SKY/WX    TMP DP  RH WIND       PRES   REMARKS
RAMONA         SUNNY     79  20  11 E18G26    30.10F
SANTEE LAKES     N/A     85  32  15 CALM      30.05F
LA MESA          N/A     79  24  13 NW5       30.01F
JAMUL            N/A     80  37  21 W6        30.08F
DESCANSO N       N/A     69  16  13 NE17      29.99F
MT. LAGUNA OBS   N/A     50  11  20 E12       29.81F
CAMPO            N/A     71  16  12 N10G22    30.13F

$$

ORANGE COUNTY AND THE LOS ANGELES BASIN

CITY           SKY/WX    TMP DP  RH WIND       PRES   REMARKS
JOHN WAYNE AP  SUNNY     80  33  18 SW6       30.07F
LAGUNA BEACH     N/A     74  34  22 CALM      30.04F
LAKE FOREST FR   N/A     85  20   9 NE9       29.96F
HUNTINGTON BCH   N/A     74  52  45 SW5       30.09F
LOS ALAMITOS   SUNNY     85  23  10 E12G21    30.06F
FULLERTON      SUNNY     88  22   9 VRB3      30.06F
LONG BEACH     SUNNY     83  27  13 S9        30.07F
L.A. AP        SUNNY     78  33  19 W8        30.08F
L.A. DOWNTOWN  SUNNY     83  22  10 CALM      30.07F

$$

THE INLAND EMPIRE

CITY           SKY/WX    TMP DP  RH WIND       PRES   REMARKS
CORONA         SUNNY     83  23  11 NE24G30   30.11F
CHINO          SUNNY     84  16   8 E14G23    30.09F
ONTARIO        SUNNY     84  16   8 E17G24    30.09F
SAN BERNARDINO SUNNY    N/A N/A N/A N9        30.14R
RIVERSIDE AP   SUNNY     81  18   9 N14G25    30.12F
MORENO VALLEY    N/A     79  30  16 SW2       28.27F
MARCH ARB      SUNNY     78  22  12 VRB3      30.14F
HORSETHIEF CYN   N/A     77  17  10 NE12      30.18F
PERRIS           N/A     77  23  13 E8        30.17F
HEMET EAST       N/A     77  16  10 CALM      30.03F
FRENCH VALLEY  FAIR      81  18   9 CALM      30.12F
TEMECULA         N/A     82  24  12 NE8       30.03F

$$

SAN BERNARDINO AND RIVERSIDE COUNTY MOUNTAINS

CITY           SKY/WX    TMP DP  RH WIND       PRES   REMARKS
BIG BEAR AP    SUNNY     48  10  21 E12       30.40S
ANGELUS OAKS     N/A     58  20  22 CALM      30.16S
PINE COVE        N/A     64  17  16 W2        30.16F

$$

SOUTHERN DESERT INCLUDING THE COACHELLA VALLEY

CITY           SKY/WX    TMP DP  RH WIND       PRES   REMARKS
PALM SPRINGS   SUNNY     81  18   9 VRB5      30.18F
THOUSAND PALMS   N/A     85  20   9 S3        30.15F
PALM DESERT      N/A     83  21  10 NW5       27.93F
THERMAL        SUNNY     84  12   6 NW10      30.12F
BLYTHE         SUNNY     79  21  11 N15       30.15F
IMPERIAL AP    SUNNY     80  22  11 N10       30.14F
EL CENTRO NAS  SUNNY     81  16   9 N13       30.16F
YUMA AZ        SUNNY     78  23  13 N14G23    30.13
MEXICALI       SUNNY     77  21  12 NW14      30.15F

$$

UPPER DESERT

CITY           SKY/WX    TMP DP  RH WIND       PRES   REMARKS
VICTORVILLE AP SUNNY     68  16  13 NE13G21   30.31F
HESPERIA         N/A     67  22  18 CALM      30.46F
APPLE VALLEY     N/A     67  13  12 E3        30.26F
PALMDALE       SUNNY     69  19  15 E17G33    30.29F
LANCASTER      SUNNY     69  20  15 E20G26    30.29F
EDWARDS AFB    SUNNY     67  22  18 NE3       30.27F
DAGGETT        SUNNY     71  19  14 MISG      30.30F
29 PALMS N     SUNNY     69  17  13 NW10      30.33F
NEEDLES        SUNNY     75  19  12 NE30G38   30.20F

$$

REGIONAL REPORTS

CITY           SKY/WX    TMP DP  RH WIND       PRES   REMARKS
SANTA BARBARA  SUNNY     78  29  16 W8        30.10F
SANDBERG       SUNNY     59  21  23 E31G40    30.30F
LAS VEGAS NV   SUNNY     68  17  14 NE7       30.29F
PHOENIX AZ     MOSUNNY   77  19  11 W8        30.11F
TIJUANA        MOSUNNY   84  16   8 NE8       30.08F
ENSENADA NW      N/A     69  32  25 W2        30.03S

$$

OFFSHORE ISLANDS

CITY           SKY/WX    TMP DP  RH WIND       PRES   REMARKS
CATALINA ARPT  SUNNY     76  15  10 E10       30.14F
SAN NICOLAS IS SUNNY    N/A N/A N/A N6        30.10F

$$

MARINE AND OFFSHORE BUOY REPORTS

STATION/POSITION SKY/WX   TEMP    WIND        PRES    SWELL
                          AIR SEA DIR/SP/G            HT/PER/DIR
                          (F)     (DEG/KT/KT) (MB)    (FT/S/D)
TANNER BANKS               62 61   40/  6/  8 1018.4F   5/310/14
S CLEMENTE BASIN           63 61  330/  6/  8 1018.2F   5/260/13
SAN NICOLAS IS.               59                N/A     3/290/12
SO. S. ROSA ISLA           62 59              1018.8F
W. S. BARBARA CH           63 60  280/  4/  8 1019.5F   7/280/13
M. S. BARBARA CH           65 58  320/  2/  4 1020.0F
S. MONICA BASIN            62 61  270/  4/  8 1019.5F   3/270/13
S PEDRO CHANNEL               61                N/A     2/260/13
DANA POINT                    61                N/A     2/270/13
OCEANSIDE OFFSHR              61                N/A     3/250/13
TORREY PINES OTR              62                N/A     3/230/14
LA JOLLA 1                    60   30/  4/  5 1018.9F
SAN DIEGO BAY                 60              1019.0F
POINT LOMA SOUTH              61                N/A     3/240/14

$$




USA.gov is the U.S. government's official web portal to all federal, state and local government web resources and services.